sat.trackr.live / text

‹ back to catalog

STARLINK-35150

NORAD 65635 · 2025-210P

PAYLOAD ACTIVE UNKNOWN

§ Identity

Operator
Country
US
Launch date
2025-09-18
Launch site
AFETR
Launch vehicle
Mass (kg)
RCS (m²)

Purposes: comms

External: N2YO · Heavens-Above · Gunter

§ Orbital elements

Epoch: 2026-09-20T08:20:54.891456Z

Period
93.85 min
Inclination
53.1591°
Eccentricity
0.0001147
Mean motion
15.34407913 rev/d
Perigee alt
461.9 km
Apogee alt
463.5 km
Semi-major
6,840.8 km
B*
5.1809e-4
RAAN
122.2362°
Arg perigee
123.2418°
Mean anomaly
236.8695°
Rev number
5,754

§ Raw data

STARLINK-351501 65635U 25210P   26263.34785754  .00017173  00000+0  51809-3 0  99912 65635  53.1591 122.2362 0001147 123.2418 236.8695 15.34407913 57540

JSON: /api/v1/satellites/65635 · /tle

For live sub-satellite position, see the globe view (requires WebGL).

§ Visibility from observer

Set your observer location to see the next 7 days of passes ≥ 10°. The values pass through the URL so the page stays shareable.

No JS? Fill the form by hand. The geolocation button needs JavaScript.